GFSMA_prec_radar_000.txt.gz
Reflectivity
-12 -6 -20 -6 9 29 36 22 30 21 31 30 2 -15 -11 -12 -10 3 7 31 27 -8 -20 4 5 -9 -20 10 -20 -20 -20 -20 -20 -15 -20 -20 -20 -20 -20 -20 -20 -20 -20
-5 1 -20 -16 7 14 15 28 30 28 27 8 10 4 6 7 8 -5 -13 17 26 26 -20 -20 0 26 -13 -20 -20 -10 -3 -20 -20 -20 -20 -20 -20 -20 -2 -4 -20 -20 -20
-20 -19 -20 -20 -2 4 7 18 21 20 27 14 12 8 0 12 16 8 1 -20 -17 24 16 -8 -20 22 20 -18 -20 -19 -1 2 -4 -3 -4 -6 -2 -13 -3 3 -20 -20 -20
-20 -20 -20 -20 -20 -10 -3 2 3 8 19 29 22 13 -19 11 6 -1 -10 -20 -14 16 28 -1 -20 -20 23 19 -18 -20 -20 -16 -15 1 4 1 1 -1 -0 5 -17 -20 -20
-20 -20 -20 -20 -20 -20 -20 -18 -15 -6 0 9 10 15 -1 -20 5 3 -20 -20 -20 -3 31 25 -18 -20 -20 18 18 -18 -20 -20 7 -9 6 1 2 4 5 -8 -12 -20 -20
-20 -20 -20 -20 -20 -20 -20 -20 -20 -20 -12 -14 -19 -9 8 6 16 15 8 -6 -20 -10 13 36 24 -20 -20 7 23 24 -9 -20 -15 8 6 -14 -3 -2 -11 -20 -20 4 -20
-20 -20 -20 -20 -20 -20 -20 -20 -20 -20 -20 -20 -20 -20 -15 -14 2 10 -20 22 3 -20 12 23 34 11 -20 -20 11 21 -18 -9 -20 -20 13 9 11 6 8 -20 -20 -0 8
-20 -20 -20 -20 -20 -20 -20 -20 -20 -20 -20 -20 -20 -20 -20 7 4 -13 -4 3 -14 -20 -20 5 38 25 -12 -2 10 -3 10 -20 1 -10 5 -19 -13 -12 -9 -20 -20 -20 -20
-20 -20 -20 -20 -20 -20 -20 -20 -20 -20 -20 -20 -20 -20 -20 -11 -20 -20 7 14 10 1 -3 -20 25 32 -11 -20 -16 1 -20 7 -11 -13 -20 -20 3 -20 -18 -20 -20 -20 -20
-20 -20 -20 -20 -20 -20 -20 -20 -20 -20 -20 -20 -20 -20 -20 -20 -20 -20 -20 -15 18 20 7 3 -17 26 31 11 -20 -8 -20 -20 -1 -7 -20 -20 -20 -20 -20 -20 -20 -20 -20
-20 -20 -20 -20 -20 -20 -20 -20 -20 -20 -20 -20 -20 -20 -20 -20 -20 -20 -20 -20 -20 -13 16 19 -20 -0 33 16 -20 -20 -20 -20 -20 -20 20 -18 -20 -20 -20 -20 -20 -20 -20
-20 -20 -20 -20 -20 -20 -20 -20 -20 -20 -20 -20 -20 -20 -20 -20 -20 -20 -20 -20 -20 -20 -12 0 1 -20 1 37 16 -20 -20 -20 6 -20 2 17 -9 -20 -20 -20 -20 -20 -20
-20 -20 -20 -20 -20 -20 -20 -20 -20 -20 -20 -20 -20 -20 -20 -20 -20 -20 -20 -20 -20 -20 -20 -1 18 -2 3 36 29 -15 -20 -20 -20 -20 -20 -7 14 2 10 -20 -20 -20 -20
-20 -20 -20 -20 -20 -20 -20 -20 -20 -20 -20 -20 -20 -20 -20 -20 -20 -20 -20 -20 -20 -20 -20 -20 3 5 -9 12 36 32 0 -20 -20 -20 -20 -20 -10 10 22 -11 -17 -3 -7
-20 -20 -20 -20 -20 -20 -20 -20 -20 -20 -20 -20 -20 -20 -20 -20 -20 -20 -20 -20 -20 -20 -20 -20 -20 -20 28 11 30 41 38 -1 -19 -20 -20 -20 -20 -5 13 7 9 -20 -20
-20 -20 -20 -20 -20 -20 -20 -20 -20 -20 -20 -20 -20 -20 -20 -20 -20 -20 -20 -20 -20 -20 -20 -20 -20 -20 -3 24 32 34 36 42 14 -20 -20 -20 -20 -20 -5 10 -12 5 -20
-20 -20 -20 -20 -20 -20 -20 -20 -20 -20 -20 -20 -20 -20 -9 -6 10 -6 -20 -20 -20 -20 -20 -20 -20 -20 -20 27 31 39 31 41 38 30 2 -20 -20 -20 -20 -20 7 -15 -20
-20 -20 -20 -20 -20 -20 -20 -20 -20 -20 -20 -20 -20 -20 -20 -20 -18 0 -20 -20 -20 -20 -20 -20 -20 -20 -20 16 19 17 35 27 36 36 39 11 -20 -20 -20 -20 -20 -20 7
-20 -20 -20 -20 -20 -20 -20 -20 -20 -20 -20 -20 -20 -19 -20 -20 -20 -20 -20 -20 -20 -20 -20 -20 -20 -20 -20 -11 16 16 26 30 24 32 32 37 13 -15 -20 -12 -20 -20 9
-20 -20 -20 -20 -20 -20 -20 -20 -20 -20 -20 -12 -1 -7 -9 1 5 5 -1 -11 -12 -11 -14 -20 -20 -20 -20 -20 10 19 28 30 25 34 33 36 34 23 9 15 -0 -7 -19
-20 -20 -20 -20 -20 -20 -20 -20 -20 -20 -20 -6 2 1 -8 -12 -5 -8 3 11 5 1 0 -12 -20 -20 -20 -20 8 7 18 22 31 23 28 34 36 33 33 32 17 17 19
-20 -20 -20 -20 -20 -20 -20 -20 -20 3 3 5 7 1 5 8 8 -20 -20 -20 -3 12 10 15 7 -20 -20 -20 -4 4 10 11 23 31 30 31 37 29 32 31 31 30 35
-20 -20 -20 -20 -20 -20 -20 -20 -20 2 9 8 6 9 2 -1 -1 7 7 -20 -20 -20 -20 -20 7 6 -20 -20 -20 2 -15 4 8 18 15 35 38 33 30 38 35 32 29
-20 -20 -20 -20 -20 -20 -20 -20 -6 3 8 6 8 7 8 8 6 6 1 13 11 9 -5 -20 -20 -20 -20 -20 -20 6 -11 -6 5 19 26 17 29 30 33 36 35 33 35
-20 -20 -20 -20 -10 -20 -20 -20 -6 7 9 5 2 5 -2 7 5 2 10 11 10 12 10 -18 -20 -20 -20 -3 -12 24 15 3 -9 -6 7 14 23 28 24 28 37 38 35
-20 -20 -20 -12 -4 3 -20 -20 -11 12 11 8 2 2 -19 0 -3 -20 10 13 15 6 12 12 32 5 -20 -20 -20 -20 -10 -2 -17 -4 0 5 18 25 32 32 28 38 33

GFSMA_prec_radar_003.txt.gz
Reflectivity
-20 -20 -20 -20 -19 -20 -16 -11 3 19 24 31 24 35 26 11 -20 -19 -20 -20 -20 -13 11 -2 -20 -5 17 -18 -20 -20 -20 -20 -20 -20 -7 -14 -20 -6 -2 -13 -18 -14 -2
-20 -20 -20 -20 -16 -20 -4 14 7 13 21 22 25 31 29 32 8 -3 -15 -20 -20 -1 15 22 27 -15 13 25 -20 -20 -20 -20 -20 -20 -2 5 -2 1 -2 1 3 4 4
-20 -20 -20 -20 -20 -20 -20 -20 -20 -5 13 10 9 27 23 23 21 19 4 -3 -20 -20 -5 12 15 31 -13 21 25 -20 -20 -20 -20 -20 -0 6 5 4 2 3 2 8 5
-20 -20 -20 -20 -20 -20 -20 -20 -20 -20 -6 -4 -2 13 12 -4 29 -9 2 8 6 -17 -20 -20 -14 1 30 -13 25 -2 -20 -20 -20 -20 -8 3 2 -1 2 6 9 6 0
-20 -20 -20 -20 -20 -20 -20 -20 -20 -20 -20 -19 -14 -0 10 9 19 -20 -7 12 -5 -14 -20 -20 -20 -20 11 22 -12 24 -18 -20 -20 -20 -18 10 4 -0 2 -7 6 5 -20
-20 -20 -20 -20 -20 -20 -20 -20 -20 -20 -20 -20 -20 -19 -17 -8 14 20 -6 12 2 3 -20 -20 -20 -20 6 10 -4 -14 28 -15 -20 -20 -20 2 8 5 1 0 1 -20 -20
-20 -20 -20 -20 -20 -20 -20 -20 -20 -20 -20 -20 -20 -20 -20 -19 -20 -6 20 -20 28 -20 -5 -5 -20 -20 -4 -7 25 -5 -7 23 5 6 -17 2 9 9 6 2 -20 -20 -20
-20 -20 -20 -20 -20 -20 -20 -20 -20 -20 -20 -20 -20 -20 -20 -20 -20 -20 -17 17 19 21 -11 -11 -20 -20 -20 -20 -19 25 12 24 20 7 -20 -20 -12 12 2 8 -20 -20 -20
-20 -20 -20 -20 -20 -20 -20 -20 -20 -20 -20 -20 -20 -20 -20 -20 -20 -20 -20 -20 -19 19 22 -4 -20 -20 -20 -20 -15 -5 9 -5 25 18 -20 -20 -4 3 10 -5 -20 -20 -13
-20 -20 -20 -20 -20 -20 -20 -20 -20 -20 -20 -20 -20 -20 -20 -20 -20 -20 -20 -20 -20 -20 -4 23 -10 -18 -19 -20 -19 -14 11 -5 25 17 5 -20 -20 -20 -20 11 -8 -12 -20
-18 -19 -20 -20 -20 -20 -20 -20 -20 -20 -20 -20 -20 -20 -20 -20 -20 -20 -20 -20 -20 -20 -20 11 18 25 -8 -20 -20 -17 -14 22 17 19 -12 -20 -20 -20 -20 -20 -20 10 7
4 7 -8 -20 -20 -4 -16 -20 -20 -20 -20 -20 -20 -20 -20 -20 -20 -20 -20 -20 -20 -20 -20 -20 5 14 22 -9 -20 -20 -20 16 24 23 -5 -20 -20 -20 -20 -20 -12 10 7
-20 -20 -20 -20 -20 -20 -20 -20 -20 -20 -20 -20 -20 -20 -20 -20 -20 -20 -20 -20 -20 -20 -20 -20 -20 -20 2 24 16 5 1 13 19 18 20 1 -20 -20 -20 -20 -20 -3 -20
-20 -20 -20 -20 -20 -20 -20 -20 -20 -20 -20 -20 -20 -20 -20 -20 -20 -20 -20 -20 -20 -20 -20 -20 -20 -20 -20 2 1 5 5 29 26 23 21 18 14 -10 10 -19 -17 -20 -20
-20 -20 -20 -20 -20 -20 -20 -20 -20 -20 -20 -20 -20 -20 -20 -20 -20 -20 -20 -20 -20 -20 -20 -20 -20 -20 -20 -20 -11 11 18 31 22 35 23 19 19 -2 -20 18 -5 -20 -20
-20 -20 -20 -20 -20 -20 -20 -20 -20 -20 -20 -20 -20 -20 -20 -20 -20 -20 -20 -20 -20 -20 -20 -20 -20 -20 -20 -20 -10 -5 21 9 28 38 27 14 22 21 18 20 28 0 1
-20 -20 -20 -20 -20 -20 -20 -20 -20 -20 -20 -20 -20 -20 -20 -20 -20 -20 -6 3 15 2 -3 -20 -20 -20 -20 -20 -20 -20 9 25 19 30 39 30 -2 7 19 15 22 16 27
-20 -20 -20 -20 -20 -20 -20 -20 -20 -20 -20 -20 -20 -20 -20 -20 -20 -20 -19 10 -20 -8 16 -17 -20 -20 -20 -20 -20 -15 -18 -20 12 26 33 38 1 -20 -20 18 20 23 -4
-20 -20 -20 -20 -20 -20 -20 -20 -20 -20 -20 -20 -20 -20 -20 -20 -20 -16 -19 6 13 12 11 15 -20 -20 -20 -20 -1 -14 3 9 7 18 33 35 37 4 -20 14 17 20 20
-20 -20 -20 -20 -20 -20 -20 -20 -20 -20 -20 -20 -20 -20 -20 -14 -20 -20 -14 -17 8 14 16 12 -20 -20 -20 -20 -20 -1 -18 -20 -14 8 26 38 37 33 21 2 -19 4 18
-20 -20 -20 -20 -20 -20 -20 -20 -20 -20 -20 -20 -20 -20 -20 -11 -1 -20 -7 -20 -19 -4 12 13 -11 8 -9 2 8 3 2 -20 -20 5 29 28 34 36 37 29 18 17 16
-20 -20 -20 -20 -20 -20 -20 -20 -20 -20 -20 -14 7 -16 -0 0 1 -20 -20 -20 -20 -13 -17 6 17 16 9 3 -20 -3 23 -20 -20 -8 28 22 20 39 37 36 34 30 18
-20 -20 -20 -20 -20 -20 -20 -20 -20 -13 6 7 5 9 8 -16 -14 1 -6 -19 -20 -20 -20 -20 -20 -10 14 -1 -4 18 22 -20 -11 -15 15 23 26 35 38 38 40 33 24
-20 -20 -20 -20 -20 -20 -20 -20 -1 5 5 3 2 7 9 8 3 5 11 12 9 9 -5 -20 -20 -20 -20 -20 3 8 21 2 -20 -20 -1 18 24 31 21 40 38 38 36
-20 -20 -20 -20 -4 -8 -20 -20 -18 7 8 1 3 5 7 7 2 -1 18 11 9 14 13 5 -17 -20 -20 -20 -20 -10 -5 26 -20 -1 -5 3 11 19 18 30 36 39 37
-20 -20 -20 -1 -3 -19 -20 -20 -18 9 10 9 -8 -7 -19 -20 -11 -3 12 10 12 11 -4 9 13 -19 -19 -20 -20 12 14 27 -20 -7 -16 0 3 15 17 16 23 29 34

GFSMA_prec_radar_009.txt.gz
Reflectivity
-20 -20 -20 -20 -20 -20 -20 -20 -20 -20 -20 -20 -20 -20 -20 -20 -12 7 -5 -20 -20 -20 -20 -20 -17 8 24 25 1 -2 -20 -20 -20 -20 -20 -19 -20 -20 -20 -20 -20 7 -19
-20 -20 -20 -20 -20 -20 -20 -20 -20 -20 -20 -20 -20 -20 -20 -20 -20 -19 -5 20 27 5 9 -18 -20 -14 14 24 -3 -20 24 -20 -20 -20 -20 -18 -20 -20 -20 -20 -20 -13 3
-20 -20 -20 -20 -20 -20 -20 -20 -20 -20 -20 -20 -20 -20 -18 4 -20 -20 5 2 26 33 25 -19 0 -16 -20 2 26 23 -19 20 -20 -20 -20 -20 -20 -20 -20 -20 -12 -2 6
-20 -20 -20 -20 -20 -20 -20 -20 -20 -20 -20 -20 -20 -20 -20 -20 -20 -20 -20 -13 9 28 35 36 18 14 -10 -20 -20 19 27 -12 -8 -20 -20 -20 -20 -20 -20 -20 -20 5 6
-20 -20 -20 -20 -20 -20 -20 -20 -20 -20 -20 -20 -20 -20 -20 -20 -20 -20 -20 -20 -18 15 24 28 32 21 2 -16 -20 -20 -15 27 19 14 -20 -20 -20 -20 -20 -20 -20 -20 12
-20 -20 -20 -20 -20 -20 -20 -20 -20 -20 -20 -20 -20 -20 -20 -20 -20 -20 -20 -20 -20 -20 -20 17 24 -8 15 12 -20 -20 -20 11 27 16 -18 -20 -20 -20 -20 -20 -20 -20 0
-20 -20 -20 -20 -20 -20 -20 -20 -20 -20 -20 -20 -20 -20 -20 -20 -20 -20 -20 -20 -20 -20 -20 3 12 9 -7 -20 -19 -20 -20 -20 -0 16 22 -20 -20 -20 -20 -20 -20 -20 -17
-20 -20 -20 -20 -20 -20 -20 -20 -20 -20 -20 -20 -20 -20 -20 -20 -20 -20 -20 -20 -20 -20 -20 -20 -20 4 19 -11 -20 -20 -20 -20 -20 15 23 29 14 -20 -20 -20 -20 -20 -0
-20 -20 -20 -20 -20 -20 -20 -20 -20 -20 -20 -20 -20 -20 -20 -20 -20 -20 -20 -20 -20 -20 -20 -20 -20 -18 13 23 -2 -20 -20 -20 -18 -20 -20 27 36 41 4 -20 -20 -14 -4
-20 -20 -20 -20 -20 -20 -20 -20 -20 -20 -20 -20 -20 -20 -20 -20 -20 -18 3 -20 -20 -20 -20 -20 -20 -20 -20 22 24 34 -4 -20 -3 7 18 -14 23 27 30 15 -20 -20 -2
-20 -20 -20 -20 -20 -20 -13 -20 -20 -20 -20 -20 -20 -20 -20 -20 -20 -20 -13 11 -19 -20 -20 -20 -20 -20 -20 2 16 23 14 7 3 -7 10 13 -6 29 37 31 21 -20 -20
-20 -20 -19 -15 -17 5 -3 -0 14 10 -14 -17 -20 -20 -20 -20 -20 -20 -20 -11 12 -10 -20 -20 -20 -20 -20 -20 -13 20 -14 13 3 -20 -8 20 22 22 27 33 36 19 -10
-19 -9 10 8 1 -1 -20 -16 8 6 11 -10 -20 -20 -20 -20 -20 -20 -20 -20 -15 10 -5 -20 -20 -20 -20 -20 -20 -20 -20 -20 11 6 6 10 11 20 34 28 21 39 25
-3 11 9 14 16 11 12 19 30 -17 -19 -20 -20 -20 -20 -20 -20 -20 -20 -20 -20 -19 9 -2 -20 -20 -20 -20 -20 -20 -20 -20 -14 1 1 2 -17 16 19 32 25 15 35
-13 -16 -17 7 13 21 24 -13 -8 -20 -20 -20 -20 -20 -20 -20 -20 -20 -20 -20 -20 -20 -20 4 0 -8 -20 -20 -20 -20 -20 -20 -20 -20 -20 -2 -3 14 9 20 35 33 28
-1 -5 23 30 10 -7 9 6 -16 -20 -20 -20 -20 -20 -20 -20 -20 -20 -20 -20 -20 -10 -13 -20 -6 -2 -3 -20 -20 -20 -20 -20 -20 -20 -16 -20 -20 -17 -20 7 27 33 35
25 6 9 -2 -3 -12 -20 -20 -20 -20 -20 -20 -20 -20 -20 -20 -20 -20 -20 -20 -20 -20 -20 -20 -20 -20 -20 -20 -20 -20 -20 -20 -20 -13 9 8 -18 -19 -20 -20 10 29 41
-13 3 -18 -20 -20 -20 -20 -20 -20 -20 -20 -20 -20 -20 -20 -20 -20 -20 -20 -20 -20 -20 -20 -20 -20 -20 -20 -20 -20 -20 -20 -20 -20 -20 -20 7 12 -20 -20 -20 -20 -4 33
-20 -20 -20 -20 -20 -20 -20 -20 -20 -20 -20 -20 -20 -20 -20 -20 -20 -20 -20 -20 -20 -20 -20 -20 -11 -7 -14 -20 -17 -20 -20 -20 -20 -20 -20 1 8 7 -20 -20 -20 -20 12
-20 -20 -20 -20 -20 -20 -20 -20 -20 -20 -20 -20 -20 -20 -20 -20 -20 -20 -20 -20 -20 -20 -20 -20 -20 -20 -9 -6 4 6 -17 -20 -20 -20 -20 -20 -8 -20 -20 -20 -20 -20 6
-20 -20 -20 -20 -20 -20 -20 -20 -20 -20 -20 -20 -20 -20 -20 -20 -20 -20 -20 -20 -20 -20 -20 -20 -20 -20 -2 3 10 -9 -11 -20 -20 -20 -20 -20 -20 -20 -20 -20 -20 -20 -20
-20 -20 -20 -20 -20 -20 -20 -20 -20 -20 -20 -20 -20 -20 -20 -20 -20 -20 -20 -20 -20 -1 -20 -20 -20 -20 -20 4 17 12 15 -9 -20 -20 -20 -20 -20 -20 -20 -20 -20 -17 -20
-20 -20 -20 -20 -20 -20 -20 -20 -20 -20 -20 -20 -20 -20 -20 -20 -20 -20 -20 -20 -20 -20 -20 -18 -20 -20 -20 -9 -4 -14 -20 26 -13 -20 -20 -20 -20 -20 -20 -20 -20 -20 -20
-20 -20 -20 -20 -20 -20 -20 -20 -20 -20 -20 -20 -20 -20 -20 -20 -20 -20 -20 -20 -20 -20 -20 -20 -13 -20 -20 -20 -20 -20 -20 -20 -12 -10 -20 -20 -20 -20 -20 -20 -20 -20 -20
-20 -20 -20 -20 -20 -20 -20 -20 -20 -20 -20 -20 -20 -20 -8 6 -20 -20 5 10 -15 -20 -20 -20 -20 -20 -6 -20 -20 -19 -19 2 -20 -20 -14 -3 -16 -20 -20 -20 -20 -20 -20
-20 -20 -20 -20 -20 -20 -20 -20 1 2 -19 -18 -20 -20 -20 -20 -19 10 13 8 4 -20 -20 -20 -20 -20 -1 3 3 3 -8 -1 -4 -19 -20 -20 -20 -17 -19 -20 -20 -20 -20

GFSMA_prec_radar_012.txt.gz
Reflectivity
-20 -20 -20 -20 -20 -20 -20 -20 -20 -20 -20 -20 -20 -20 -20 -20 -20 -20 -20 1 -15 -20 -20 -20 -20 -1 27 27 24 6 -1 -20 -20 6 -20 -20 -2 -13 -11 -20 -20 -20 -20
-20 -20 -20 -20 -20 -20 -20 -20 -20 -20 -20 -20 -20 -20 -20 -20 -0 -12 -20 -20 -13 -16 6 -7 -20 -20 -19 24 29 28 23 7 23 18 -16 -20 -20 -20 -20 -20 -20 -20 -20
-20 -20 -20 -20 -20 -20 -20 -20 -20 -20 -20 -20 -20 -20 -20 -20 -20 -20 -20 -20 -20 -20 -10 9 4 -20 -18 -20 20 26 27 23 21 23 22 18 2 -20 -20 -20 -20 -20 -20
-20 -20 -20 -20 -20 -20 -20 -20 -20 -20 -20 -20 -20 -20 -20 -20 -20 -20 -20 -20 -20 -20 -20 -19 22 24 9 15 17 -6 22 28 18 16 10 -11 -20 9 -20 -20 -20 -20 -20
-20 -20 -20 -20 -20 -20 -20 -20 -20 -20 -20 -20 -20 -20 -20 -20 -20 -20 -20 -20 -20 -20 -20 -20 -17 18 30 21 28 -11 8 12 32 -1 -4 -20 -20 -20 -20 -20 -20 -20 -20
-20 -20 -20 -20 -20 -20 -20 -20 -20 -20 -20 -20 -20 -20 -20 -20 -20 -20 -20 -20 -20 -20 -20 -20 -19 -17 3 29 33 14 -9 -20 -20 19 44 29 -20 -20 -20 -20 -20 -20 -20
-20 -20 -20 -20 -20 -20 -20 -20 -20 -20 -20 -20 -20 -20 -20 -20 -20 -20 -20 -20 -20 -20 -20 -20 -20 -20 -20 -20 34 34 37 31 13 -20 8 27 39 -20 -20 -20 -20 -20 -20
-20 -20 -20 -20 -20 -20 -20 -20 -20 -20 -20 -20 -20 -20 -20 -20 -20 -20 -20 -20 -20 -20 -20 -20 -20 -20 -20 -20 -12 23 30 32 27 -16 -20 -18 18 19 -19 -20 -20 -20 -20
-20 -20 -20 -20 -20 -20 -20 -20 -20 -20 -20 -20 -20 -20 -20 -20 -20 -20 -20 -20 -20 -20 -20 -20 -20 -20 -20 -20 6 10 9 25 17 -4 -19 -19 24 35 42 1 -20 -20 -20
-20 -20 -20 -20 -20 -20 -20 -20 -20 -20 -20 -20 -20 -20 -20 -20 -20 -20 -20 -20 -20 -20 -20 -20 -20 -20 -20 -20 -5 15 6 16 13 21 -13 8 -20 -16 24 37 30 20 -20
-20 -20 -20 -20 -20 -20 -20 -20 -18 -20 -20 -20 -20 -20 -20 -20 -20 -20 -20 -20 -20 -6 4 -14 -20 -20 -20 -20 -20 -20 21 22 23 5 10 -19 2 -6 -20 16 35 37 25
-20 -20 -20 -20 -19 -20 -20 -20 -8 -16 1 -15 -13 -20 -20 -20 -20 -20 -20 -20 -20 -15 -1 12 3 -14 -20 -20 -20 -20 3 17 23 30 18 19 19 10 -11 28 34 33 33
-14 -16 -20 -20 2 -12 -15 -6 1 -8 13 5 15 -20 -20 -20 -20 -20 -20 -20 -20 -20 -15 -5 10 3 -13 -20 -20 -20 -20 -12 22 16 22 5 15 8 -2 29 19 39 28
-19 -20 -16 7 -20 7 27 22 8 22 29 26 -11 -20 -20 -20 -20 -20 -20 -20 -20 -20 -20 -20 -2 6 2 -4 -20 -20 -20 -20 -3 15 10 -4 15 5 13 19 20 19 42
-20 -15 -19 4 24 28 27 35 22 -11 -6 -12 -20 -20 -20 -20 -20 -20 -20 -20 -20 -18 -20 -20 -20 -0 5 5 5 -16 -20 -20 -20 -20 -20 -19 -19 -20 -20 -20 6 21 33
-17 6 7 25 34 33 14 8 -2 -20 -20 -20 -20 -20 -20 -20 -20 -20 -20 -20 -20 -20 -20 -20 -20 -19 -1 7 10 7 -19 -20 -20 -20 -19 -9 -14 -20 10 -20 -20 -0 24
-18 3 32 17 7 7 1 -3 -19 -20 -20 -20 -20 -20 -20 -20 -20 -20 -20 -20 -20 -20 -20 -20 -20 -20 -20 -14 -0 -3 1 -17 -20 -20 11 10 11 11 11 4 -20 -17 -12
-20 -19 -19 -20 -15 -20 -20 -20 -20 -20 -20 -20 -20 -20 -20 -20 -20 -20 -20 -20 -20 -20 -20 -20 -20 -20 -20 -20 -20 -2 -15 -16 -16 -20 -20 -20 8 8 11 -20 7 3 8
-20 -20 -20 -20 -20 -20 -20 -20 -20 -20 -20 -20 -20 -20 -20 -20 -20 -20 -20 -20 -20 -20 -20 -20 -20 -20 -20 -20 -20 -20 -20 -20 -20 -19 -20 -20 1 -11 4 8 5 -20 -20
-20 -20 -20 -20 -20 -20 -20 -20 -20 -20 -20 -20 -20 -20 -20 -20 -20 -20 -20 -20 -20 -20 -20 -20 -20 -20 2 -2 -3 -1 -18 -20 -20 -20 -16 -20 -20 -1 10 -10 -20 -20 -20
-19 -20 -20 -20 -20 -20 -20 -20 -20 -20 -20 -20 -20 -20 -20 -20 -20 -20 -20 -20 -20 -20 -20 -20 -20 -20 -20 -20 -5 -14 1 -20 -20 -20 -20 -20 -20 -20 -20 -20 -20 -20 -20
-12 -5 -20 -20 -20 -20 -20 -20 -20 -20 -20 -20 -20 -20 -20 -20 -20 -20 -20 -20 -20 -20 -20 -20 -20 -20 -20 1 3 4 2 6 -20 -20 -20 -20 -20 -20 -20 -20 -20 -20 -20
-15 -20 -20 -20 -20 -20 -20 -20 -20 -20 -20 -20 -20 -20 -20 -20 -20 -20 -20 -20 -20 -20 -20 -20 -8 -12 -20 -20 -19 7 -1 -20 -20 -20 -3 15 -20 -20 -20 -20 -20 -20 -20
-20 -20 -20 -20 -20 -20 -20 -20 -20 -20 -20 -20 -20 -20 -20 -20 -20 -16 -19 -19 -20 -20 -20 -20 -20 -20 -20 -20 -20 -20 -20 -20 -20 -20 11 -9 -20 -20 -20 -20 -20 -20 -20
-20 -20 -20 -20 -20 -20 -20 -20 -20 -20 -20 -20 -20 -20 -15 -12 -18 -11 10 11 2 -20 -20 -20 -20 -20 -12 -0 -3 -6 5 -3 -15 -20 -20 1 -6 -20 -20 -20 -20 -20 -20
-20 -20 -20 -20 -20 -20 -20 -20 -19 -5 -20 -20 -20 -20 -20 -20 -20 -16 4 4 6 -7 -19 -20 -20 -1 4 -7 4 19 6 -15 -16 -8 -20 -19 -20 -20 -20 -20 -20 -20 -20

GFSMA_prec_radar_018.txt.gz
Reflectivity
-20 -20 -20 -20 -20 -20 -20 -20 -20 -20 -20 -20 -20 -20 -20 -20 -20 -20 -20 -20 -20 -20 -20 -20 -20 -18 -20 -20 -20 10 14 -20 -13 25 1 17 9 -20 -20 -20 -20 -20 -20
-20 -20 -20 -20 -20 -20 -20 -20 -20 -20 -20 -20 -20 -20 -20 -20 -20 -20 -20 -20 -20 -20 -20 -20 -20 -20 -20 -8 -20 -20 -20 7 2 -7 23 21 6 -20 -9 -20 -20 -20 -20
-20 -20 -20 -20 -20 -20 -20 -20 -20 -20 -20 -20 -20 -20 -20 -20 -20 -20 -20 -20 -20 -20 -20 -20 -20 -20 -20 -19 -20 -20 -20 -19 -1 9 23 24 16 -20 -20 19 0 -20 -17
-20 -20 -20 -20 -20 -20 -20 -20 -20 -20 -20 -20 -20 -20 -20 -20 -20 -20 -20 -20 -20 -20 -20 -20 -20 -20 -20 -20 -3 -2 13 6 -0 -3 2 18 24 20 -1 -18 12 9 -20
-20 -20 -20 -20 -20 -20 -20 -20 -20 -20 -20 -20 -20 -20 -20 -20 -20 -20 -20 -20 -20 -20 -20 -20 -20 -20 -20 -20 -20 -20 -8 18 16 -5 12 19 20 23 12 4 12 15 -20
-20 -20 -20 -20 -20 -20 -20 -20 -20 -20 -20 -20 -20 -20 -20 -20 -20 -20 -20 -20 -20 -20 -20 -20 -20 -20 -20 -20 -20 -20 -20 4 8 10 -2 -13 20 29 36 39 22 20 18
-20 -20 -20 -20 -20 -20 -20 -20 -20 -20 -20 -20 -20 -20 -20 -20 -20 -20 -20 -20 -20 -20 -20 -20 -20 -20 -20 -20 -20 -20 -20 -20 -19 -20 -20 -20 -9 8 22 33 45 26 15
-20 -20 -20 -20 -20 -20 -20 -20 -20 -20 -20 -20 -20 -20 -20 -20 -20 -20 -20 -20 -20 -20 -20 -20 -20 -20 -20 -20 -20 -20 -20 -20 -20 -20 -20 -20 -13 -6 -13 26 28 36 38
-20 -20 -20 -20 -20 -20 -20 -20 -20 -20 -20 -20 -20 -20 -20 -20 -20 -20 -20 -20 -20 -20 -20 -20 -20 -20 -20 -20 -20 -20 -20 -20 -20 -20 -20 -20 -20 -20 14 -8 31 30 39
-20 -20 -20 -20 -20 -20 -20 -20 -20 -20 -20 -20 -20 -20 -20 -20 -20 -20 -20 -20 -20 -20 -20 -20 -20 -20 -20 -20 -20 -20 -20 -20 -20 -20 -20 -20 -20 -20 -5 24 27 30 38
-20 -20 -20 -20 -20 -20 -20 -20 -20 -18 -20 -20 -20 -14 -20 -20 -20 -20 -20 -20 -18 -17 -20 -20 -20 -20 -20 -20 -20 -20 -20 -20 -20 -20 -20 -20 -20 -20 -17 7 21 24 19
-20 -20 -20 -20 -20 -20 -20 -20 -20 -20 -20 -9 -19 -2 -20 -19 -20 -20 -14 -19 -20 -16 -0 -9 -19 -20 -20 -20 -20 -20 -20 -20 -20 -20 -20 -20 -20 -20 -20 8 26 21 33
-20 -20 -20 -20 -20 -20 -20 -20 -20 -20 -19 -2 19 15 19 30 32 33 29 10 -18 -20 -20 -18 -19 -20 -20 -20 -20 -20 -20 -20 -20 -20 -20 -20 -20 -0 -20 1 17 33 28
-20 -20 -20 -20 -20 -20 -20 -20 -20 -13 20 33 31 39 36 31 30 30 24 11 -19 -20 -20 -20 -20 -20 -20 -20 -20 -20 -20 -20 -20 -20 -20 -20 -20 -20 -20 8 -2 26 26
-20 -20 -20 -20 -20 -20 -20 -14 20 32 33 35 32 32 30 29 26 21 26 12 -5 -20 -20 -20 -20 -20 -20 -20 -20 -20 -20 -20 -20 -20 -20 -20 -20 -20 -20 -20 -12 21 23
-20 -20 -20 -20 -20 -20 -19 11 18 12 9 13 13 15 11 9 -4 -20 -19 -20 -20 -20 -20 -20 -20 -20 -20 -20 -20 -20 -20 -20 -20 -20 -20 -20 -20 -20 -20 -16 -20 14 2
-20 -20 -20 -20 -20 6 -16 -20 -20 -20 -14 -2 0 -10 -17 -20 -20 -20 -20 -20 -20 -20 -20 -20 -20 -20 -20 -20 -20 -20 -20 -20 -20 -20 -20 -20 -20 -20 -20 -20 -20 -3 7
-20 -20 3 17 15 4 -20 -20 -20 -20 -20 -20 -20 -20 -20 -20 -20 -20 -20 -20 -20 -20 -20 -20 -20 -20 -20 -20 -20 -20 -20 -20 -20 -20 -20 -20 -20 -20 -20 -20 -20 -20 -1
-20 -16 19 2 -12 -12 -20 -20 -20 -20 -20 -20 -20 -20 -20 -20 -20 -20 -20 -20 -20 -20 -20 -20 -20 -20 -20 -20 -20 -20 -20 -20 -20 -20 -20 -20 -20 -20 -20 -20 -20 -20 -18
20 22 11 -15 -13 -20 -20 -20 -20 -20 -20 -20 -20 -20 -20 -20 -20 -20 -20 -20 -20 -20 -20 -20 -20 -20 -20 -20 -20 -20 -20 -20 -20 -20 -20 -20 -20 -20 -20 -20 -20 -20 -4
-1 -12 -7 -5 2 3 -0 -20 -20 -20 -20 -20 -20 -20 -20 -20 -20 -20 -20 -20 -20 -20 -7 -0 1 -12 -0 -20 -19 -20 -20 -20 -20 -20 -20 -20 -20 -20 -20 -20 -20 -20 4
5 -1 -20 -20 -20 -20 -20 -20 -20 -20 -20 -20 -20 -20 -20 -20 -20 -20 -20 -20 -1 8 8 8 -20 -20 -20 -20 -20 -11 -20 -20 -20 -20 -20 -20 -20 -20 -20 -20 -20 -20 -20
-20 -20 -20 -20 -20 -20 -20 -20 -20 -20 -20 -20 -20 -20 -20 -20 -20 -20 -20 -20 -5 1 2 -12 2 6 5 -19 -19 -20 -20 -20 -20 -20 -20 -11 -19 -13 -20 -20 -20 -20 -20
-20 -20 -20 -20 -20 -20 -20 -20 -20 -20 -20 -20 -20 -20 -20 -20 -20 -11 -18 -19 -20 -20 -20 -20 -20 -20 -20 -17 -20 -20 -20 -20 -20 -20 -20 3 -20 -20 -20 -20 -20 -20 -20
-20 -20 -20 -20 -20 -20 -20 -20 -20 -20 -20 -20 -20 -20 -20 -19 5 -13 -16 -20 -20 -20 -20 -20 -4 -11 -20 -20 -2 -17 7 6 -20 -20 -20 -20 -20 -20 -20 -20 -20 -12 -19
-20 -20 -20 -20 -20 -20 -20 -20 -20 -20 -13 -10 -20 -20 -20 -20 -6 9 10 10 10 2 2 -2 -20 -20 3 10 -3 3 9 3 2 -10 -20 -20 -20 -20 -20 -20 -20 -20 -10

GFSMA_prec_radar_021.txt.gz
Reflectivity
-20 -20 -20 -20 -20 -20 -20 -20 -20 -20 -20 -20 -20 -20 -20 -20 -20 -20 -20 -20 -20 -20 -20 -20 -20 -20 -20 -20 -19 -7 -20 -20 -14 14 14 23 22 -5 -20 -3 -20 -20 -20
-20 -20 -20 -20 -20 -20 -20 -20 -20 -20 -20 -20 -20 -20 -20 -20 -20 -20 -20 -20 -20 -20 -20 -20 -20 -20 -20 -20 -20 -20 -20 -20 26 16 27 -2 15 17 12 16 15 -20 -20
-20 -20 -20 -20 -20 -20 -20 -20 -20 -20 -20 -20 -20 -20 -20 -20 -20 -20 -20 -20 -20 -20 -20 -20 -20 -20 -20 -20 -20 -20 -20 -19 -18 -13 21 22 22 22 18 -14 15 -10 -20
-20 -20 -20 -20 -20 -20 -20 -20 -20 -20 -20 -20 -20 -20 -20 -20 -20 -20 -20 -20 -20 -20 -20 -20 -20 -20 -20 -20 -20 -20 -20 -20 -20 9 4 17 17 -10 15 20 -11 22 19
-20 -20 -20 -20 -20 -20 -20 -20 -20 -20 -20 -20 -20 -20 -20 -20 -20 -20 -20 -20 -20 -20 -20 -20 -20 -20 -20 -20 -20 -20 -20 -20 -20 -11 2 -4 10 -9 18 10 13 18 21
-20 -20 -20 -20 -20 -20 -20 -20 -20 -20 -20 -20 -20 -20 -20 -20 -20 -20 -20 -20 -20 -20 -20 -20 -20 -20 -20 -20 -20 -20 -20 -20 -20 -20 -20 -17 -6 -10 14 22 17 27 13
-20 -20 -20 -20 -20 -20 -20 -20 -20 -20 -20 -20 -20 -20 -20 -20 -20 -20 -20 -20 -20 -20 -20 -20 -20 -20 -20 -20 -20 -20 -20 -20 -20 -20 -20 -20 -20 -20 -20 6 2 6 7
-20 -20 -20 -20 -20 -20 -20 -20 -20 -20 -20 -20 -20 -20 -20 -20 -20 -20 -20 -20 -20 -20 -20 -20 -20 -20 -20 -20 -20 -20 -20 -20 -20 -20 -20 -20 -20 -20 -20 -20 -20 17 15
-20 -20 -20 -20 -20 -20 -20 -20 -20 -20 -20 -20 -20 -20 -20 -20 -20 -20 -20 -20 -20 -20 -20 -20 -20 -20 -20 -20 -20 -20 -20 -20 -20 -20 -20 -20 -20 -20 -20 -20 -20 -20 -20
-20 -20 -20 -20 -20 -20 -20 -20 -20 -20 -20 -20 -20 -20 -20 -20 -20 -20 -20 -20 -20 -20 -20 -20 -20 -20 -20 -20 -20 -20 -20 -20 -20 -20 -20 -20 -20 -20 -20 -20 -20 -20 -20
-20 -20 -20 -20 -20 -20 -20 -20 -20 -20 -20 -20 -20 -16 -20 -20 -20 -20 -20 -20 -20 -20 -20 -20 -20 -20 -20 -20 -20 -20 -20 -20 -20 -20 -20 -20 -20 -20 -20 -20 -20 -20 -20
-20 -20 -20 -20 -20 -20 -20 -20 -20 -20 -20 -20 -20 -20 -17 -19 -20 -20 -20 -20 -20 -20 -20 -20 -20 -20 -20 -20 -20 -20 -20 -20 -20 -20 -20 -20 -20 -20 -20 -20 -20 -20 -20
-20 -20 -20 -20 -20 -20 -20 -20 -8 6 7 4 -20 -12 2 10 17 26 20 12 2 -20 -20 -20 -20 -20 -20 -20 -20 -20 -20 -20 -20 -20 -20 -20 -20 -20 -20 -20 -20 -20 -20
-20 -20 -20 -20 -20 -20 -20 -20 -20 -1 4 18 22 29 30 34 36 37 24 24 22 2 -19 -20 -20 -20 -20 -20 -20 -20 -20 -20 -20 -20 -20 -20 -20 -20 -20 -20 -20 -9 -20
-20 -20 -20 -20 -20 -19 -10 -9 -5 19 28 25 23 27 30 23 22 24 25 21 9 -17 -20 -20 -20 -20 -20 -20 -20 -20 -20 -20 -20 -20 -20 -20 -20 -20 -20 -20 -20 -20 -20
-20 -20 -20 -14 -19 -20 -6 -4 -19 -20 -3 1 -1 9 17 18 16 6 -7 -6 -6 -20 -20 -20 -9 -20 -20 -20 -20 -20 -20 -20 -20 -20 -20 -20 -20 -20 -20 -20 -20 -20 -20
-20 -17 -19 -20 -17 11 25 18 9 4 -2 -20 -20 -20 -20 -20 -20 -17 -7 -20 -20 -20 -20 -20 -20 -20 -20 -20 -20 -20 -20 -20 -20 -20 -20 -20 -20 -20 -20 -20 -20 -20 -20
-20 5 -1 27 29 27 24 -8 -20 -20 -20 -20 -20 -17 -20 -20 -20 -20 -20 -20 -20 -20 -20 -20 -20 -20 -20 -20 -20 -20 -20 -20 -20 -20 -20 -20 -20 -20 -20 -20 -20 -20 -20
2 23 27 14 -5 -20 -20 -20 -20 -20 -20 -20 -20 -20 -20 -20 -20 -20 -20 -20 -20 -20 -20 -20 -20 -20 -20 -20 -20 -20 -20 -20 -20 -20 -20 -20 -20 -20 -20 -20 -20 -20 -20
-16 -20 -19 -19 -19 -19 -20 -20 -20 -20 -20 -20 -20 -20 -20 -20 -20 -20 -20 -20 -20 -20 -20 -20 -20 -20 -20 -20 -20 -20 -20 -20 -20 -20 -20 -20 -20 -20 -20 -20 -20 -20 -20
-20 -20 -17 -18 -19 -18 -20 -20 -20 -20 -20 -20 -20 -20 -20 -20 -20 -20 -20 -20 -16 -3 -3 -5 2 -7 -3 -8 -1 -1 -2 -20 -20 -20 -20 -20 -20 -20 -20 -20 -20 -20 -20
-20 -20 -20 -20 -20 -20 -20 -20 -20 -20 -20 -20 -20 -20 -20 -20 -20 -20 -20 -3 -5 3 2 9 4 1 -2 -2 -3 1 9 6 5 0 0 -20 -20 -20 -20 -20 -20 -20 -20
-20 -20 -20 -20 -20 -20 -20 -20 -20 -20 -20 -20 -6 -20 -20 -20 -15 -2 -5 7 -4 -8 -16 1 4 2 2 -1 1 9 10 10 8 2 7 6 3 2 2 3 -6 -20 -20
-20 -20 -20 -20 -20 -20 -20 -20 -20 -20 -10 -20 -20 -10 -0 -2 -2 -13 -8 5 5 7 8 7 -2 6 5 5 5 6 11 12 11 7 5 11 6 6 4 -11 -20 -20 -20
-20 -20 -20 -20 -20 -20 -20 -20 -9 2 2 -10 -3 -0 -3 -20 -1 1 8 12 10 8 5 -3 -9 -5 -20 -20 -17 12 15 17 16 8 7 12 8 5 3 1 -20 -20 -20
-20 -20 -20 -20 -20 -20 -20 -20 -19 2 5 1 2 2 -9 -20 -20 -16 17 12 9 3 1 2 3 4 -18 11 1 15 17 16 14 9 1 10 5 5 4 1 -20 -20 -20

GFSMA_prec_radar_024.txt.gz
Reflectivity
-20 -20 -20 -20 -20 -20 -20 -20 -20 -20 -20 -20 -20 -20 -20 -20 -20 -20 -20 -20 -20 -20 -20 -20 -20 -20 -20 -20 -20 -20 -20 -20 -19 9 -3 3 5 -1 -19 -20 -20 -20 -20
-20 -20 -20 -20 -20 -20 -20 -20 -20 -20 -20 -20 -20 -20 -20 -20 -20 -20 -20 -20 -20 -20 -20 -20 -20 -20 -20 -20 -20 -20 -20 -20 -20 5 -17 12 2 -18 11 -9 -20 -20 -20
-20 -20 -20 -20 -20 -20 -20 -20 -20 -20 -20 -20 -20 -20 -20 -20 -20 -20 -20 -20 -20 -20 -20 -20 -20 -20 -20 -20 -20 -20 -20 -20 -20 -20 -20 -17 -2 10 24 2 1 -5 -20
-20 -20 -20 -20 -20 -20 -20 -20 -20 -20 -20 -20 -20 -20 -20 -20 -20 -20 -20 -20 -20 -20 -20 -20 -20 -20 -20 -20 -20 -20 -20 -20 -20 -9 -17 -20 -18 5 16 9 17 24 21
-20 -20 -20 -20 -20 -20 -20 -20 -20 -20 -20 -20 -20 -20 -20 -20 -20 -20 -20 -20 -20 -20 -20 -20 -20 -20 -20 -20 -20 -20 -20 -20 -20 -20 -20 -20 -13 -20 -0 17 10 24 22
-20 -20 -20 -20 -20 -20 -20 -20 -20 -20 -20 -20 -20 -20 -20 -20 -20 -20 -20 -20 -20 -20 -20 -20 -20 -20 -20 -20 -20 -20 -20 -20 -20 -20 -20 -20 -20 -20 -19 -11 21 27 23
-20 -20 -20 -20 -20 -20 -20 -20 -20 -20 -20 -20 -20 -20 -20 -20 -20 -20 -20 -20 -20 -20 -20 -20 -20 -20 -20 -20 -20 -20 -20 -20 -20 -20 -20 -20 -20 -20 -20 -20 -17 -9 21
-20 -20 -20 -20 -20 -20 -20 -20 -20 -20 -20 -20 -20 -20 -20 -20 -20 -20 -20 -20 -20 -20 -20 -20 -20 -20 -20 -20 -20 -20 -20 -20 -20 -20 -20 -20 -20 -20 -20 -20 -20 -20 -17
-20 -20 -20 -20 -20 -20 -20 -20 -20 -20 -20 -20 -20 -20 -20 -20 -20 -20 -20 -20 -20 -20 -20 -20 -20 -20 -20 -20 -20 -20 -20 -20 -20 -20 -20 -20 -20 -20 -20 -20 -20 -20 -20
-20 -20 -20 -20 -20 -20 -20 -20 -20 -20 -20 -20 -20 -20 -20 -20 -20 -0 -13 -20 -20 -20 -20 -20 -20 -20 -20 -20 -20 -20 -20 -20 -20 -20 -20 -20 -20 -20 -20 -20 -20 -20 -20
-20 -20 -20 -20 -20 -20 -20 -20 -20 -20 -20 -19 -20 3 -20 -18 -20 -18 -18 20 21 -20 -20 -20 -20 -20 -20 -20 -20 -20 -20 -20 -20 -20 -20 -20 -20 -20 -20 -20 -20 -20 -20
-20 -20 -20 -20 -20 -20 -20 -20 -20 -20 -20 -20 -20 -20 -20 -20 -20 -8 -0 -16 27 27 -10 -20 -20 -20 -20 -20 -20 -20 -20 -20 -20 -20 -20 -20 -20 -20 -20 -20 -20 -20 -20
-20 -20 -20 -20 -20 -20 -20 -20 -9 -7 -12 -10 -6 -5 -9 -4 2 19 26 24 14 23 13 12 -10 -20 -20 -20 -20 -20 -20 -20 -20 -20 -20 -20 -20 -20 -20 -20 -20 -20 -20
-20 -20 -20 -20 -20 -20 -16 0 11 -20 -10 -4 2 13 17 20 22 24 31 25 29 18 9 21 18 4 -20 -20 -20 -20 -20 -20 -20 -20 -20 -20 -20 -20 -20 -20 -20 -20 -20
-20 -20 0 -11 3 -17 -8 1 8 9 3 5 6 6 12 9 10 16 23 26 22 8 11 7 6 9 -20 -20 -20 -20 -20 -20 -20 -20 -20 -20 -20 -20 -20 -20 -20 -20 -20
-16 -4 -7 -11 -20 -15 -11 15 14 24 19 14 11 10 8 11 11 9 14 11 10 5 7 2 1 -0 -19 -20 -20 -20 -20 -20 -20 -20 -20 -20 -20 -20 -20 -20 -20 -20 -20
-20 -20 -13 -11 -3 6 6 11 17 14 9 2 -8 -18 -20 -17 -20 -20 -14 6 6 1 -15 -20 -10 -20 -20 -20 -20 -20 -20 -20 -20 -20 -20 -20 -20 -20 -20 -20 -20 -20 -20
7 -1 -1 6 -1 2 8 14 11 -19 -19 -19 -20 -20 -20 -20 -20 -20 -20 -20 -20 -20 -20 -20 -20 -20 -20 -20 -20 -20 -20 -20 -20 -20 -20 -20 -20 -20 -20 -20 -20 -20 -20
9 5 11 12 -3 -20 -20 -20 -20 -20 -20 -20 -20 -20 -20 -20 -20 -20 -20 -20 -20 -20 -20 -20 -20 -20 -20 -20 -20 -20 -20 -20 -20 -20 -20 -20 -20 -20 -20 -20 -20 -20 -20
17 16 14 5 5 -20 -20 -20 -20 -20 -20 -20 -20 -20 -20 -20 -20 -20 -20 -20 -20 -20 -20 -20 -20 -20 -20 -20 -20 -20 -20 -20 -20 -20 -20 -20 -20 -20 -20 -20 -20 -20 -20
9 8 -7 -20 -20 -20 -20 -20 -20 -20 -20 -20 -20 -20 -20 -20 -20 -20 -20 -20 -20 -20 -20 -3 -2 -7 -16 -20 -20 -20 -20 -20 -20 -20 -20 -20 -20 -12 -20 -20 -20 -20 -20
-20 -20 -20 -20 -20 -20 -20 -20 -20 -20 -20 -20 -20 -20 -20 -20 -20 -20 -20 -20 -19 -5 -10 5 2 4 -0 3 -3 3 8 8 9 -20 4 10 -11 7 -6 -20 -20 -20 -20
-20 -20 -20 -20 -20 -20 -20 -20 -20 -20 -20 -20 -20 -20 -20 -20 -16 -20 -20 -19 -20 -20 -20 1 6 3 2 -2 1 3 9 13 10 -15 8 14 13 10 9 -19 -13 -20 -20
-20 -20 -20 -20 -20 -20 -20 -20 -20 -20 -20 -14 -2 -20 -5 -7 -4 -20 2 5 -5 -4 -3 6 11 8 5 -12 -10 0 11 11 11 11 8 15 -4 11 -5 7 -20 7 -10
-20 -20 -20 -20 -20 -20 -20 -20 -20 -8 -1 -2 -2 -1 4 9 3 -12 13 12 10 7 1 -6 -5 -20 -20 -19 -16 13 17 17 15 8 -15 14 15 11 8 5 -7 4 -14
-20 -20 -20 -20 -20 -20 -20 -1 -3 2 7 7 2 4 -18 5 -20 6 14 18 15 1 1 6 3 1 -13 6 -19 -5 15 16 16 14 -13 13 15 13 13 -18 -11 -1 5

GFSMA_prec_radar_027.txt.gz
Reflectivity
-20 -20 -20 -20 -20 -20 -20 -20 -20 -20 -20 -20 -20 -20 -20 -20 -20 -20 -20 -20 -20 -20 -20 -20 -20 -20 -20 -20 -20 -20 -20 -20 -20 -20 -17 9 -8 21 2 -16 -11 4 -7
-20 -20 -20 -20 -20 -20 -20 -20 -20 -20 -20 -20 -20 -20 -20 -20 -20 -20 -20 -20 -20 -20 -20 -20 -20 -20 -20 -20 -20 -20 -20 -20 -20 -20 -20 -20 -18 4 8 19 16 -20 -0
-20 -20 -20 -20 -20 -20 -20 -20 -20 -20 -20 -20 -20 -20 -20 -20 -20 -20 -20 -20 -20 -20 -20 -20 -20 -20 -20 -20 -20 -20 -20 -20 -20 -20 -20 -20 -20 -3 -3 10 4 9 -15
-20 -20 -20 -20 -20 -20 -20 -20 -20 -20 -20 -20 -20 -20 -20 -20 -20 -20 -20 -20 -20 -20 -20 -20 -20 -20 -20 -20 -20 -20 -20 -20 -20 -20 -20 -20 -20 -20 -6 8 10 18 10
-20 -20 -20 -20 -20 -20 -20 -20 -20 -20 -20 -20 -20 -20 -20 -20 -20 -20 -20 -20 -20 -20 -20 -20 -20 -20 -20 -20 -20 -20 -20 -20 -20 -20 -20 -20 5 -10 -20 -18 11 23 16
-20 -20 -20 -20 -20 -20 -20 -20 -20 -20 -20 -20 -20 -20 -20 -20 -20 -20 -20 -20 -20 -20 -20 -20 -20 -20 -20 -20 -20 -20 -20 -20 -20 -20 -20 -20 -20 0 -18 -20 -10 20 27
-20 -20 -20 -20 -20 -20 -20 -20 -20 -20 -20 -20 11 -20 -20 -20 -20 -20 -20 -20 -20 -20 -20 -20 -20 -20 -20 -20 -20 -20 -20 -20 -20 -20 -20 -20 -20 -20 -20 -16 5 -20 -0
-20 -19 -20 -8 -20 -20 -20 -20 -20 -20 -20 -20 13 -8 -13 -20 -20 -20 -20 -20 -20 -20 -20 -20 -20 -20 -20 -20 -20 -20 -20 -20 -20 -20 -20 -20 -20 -20 -20 -20 -20 -20 -20
-5 -20 -20 -20 -20 -20 -20 -20 -20 -20 -20 -20 -20 17 16 -14 -3 -20 -17 3 -15 -20 -20 -20 -20 -20 -20 -20 -20 -20 -20 -20 -20 -20 -20 -20 -20 -20 -20 -20 -20 -20 -20
-20 -20 -20 -20 -20 -20 -20 -20 -20 -20 -20 -20 -20 -20 -20 16 23 12 -20 18 26 -4 -20 -19 -20 -20 -20 -20 -20 -20 -20 -20 -20 -20 -20 -20 -20 -20 -20 -20 -20 -20 -20
-20 -20 -20 -20 -20 -20 -20 -20 -20 -20 -20 -20 -19 -2 -20 -20 -20 -12 -4 12 26 25 17 23 4 -20 -20 -20 -20 -20 -20 -20 -20 -20 -20 -20 -20 -20 -20 -20 -20 -20 -20
-20 -20 -20 -20 -20 -20 -20 -16 -3 -7 -20 -13 -20 -20 -20 -15 -20 -20 -19 -1 -19 25 -13 20 31 25 -17 -5 -17 -18 -20 -20 -20 -20 -20 -20 -20 -20 -20 -20 -20 -20 -20
-20 -20 -20 -20 -20 -20 -13 -20 -13 -15 -1 -13 -20 -19 -20 -20 -2 -3 3 10 19 30 26 1 31 20 13 -1 -19 7 -20 -20 -20 -20 -20 -20 -20 -20 -20 -20 -20 -20 -20
-20 -20 -20 -20 -13 -4 7 15 22 9 -20 -14 -20 -3 6 0 -0 3 9 9 7 12 15 25 30 -7 10 28 5 -19 -20 -20 -20 -20 -20 -20 -20 -20 -20 -20 -20 -20 -20
-20 -20 -20 -20 -20 1 -20 -20 9 14 27 13 16 17 12 15 11 18 17 13 15 9 -14 -17 15 29 28 17 11 -15 -20 -20 -20 -20 -20 -20 -20 -20 -20 -20 -20 -20 -20
-20 -20 -20 -20 -20 -20 -20 -16 -11 -0 12 23 21 22 18 16 14 11 -7 6 16 20 14 -5 12 2 4 -18 5 -5 -20 -20 -20 -20 -20 -20 -20 -20 -20 -20 -20 -20 -20
-20 -7 0 -20 -20 -9 -0 5 10 -1 0 -1 -13 8 -1 -7 -13 -9 -1 -9 11 5 4 -1 11 -3 4 -8 -15 -20 -20 -20 -20 -20 -20 -20 -20 -20 -20 -20 -20 -20 -20
2 3 1 8 15 18 -20 -18 3 -20 -20 -20 -2 -19 -20 -20 -20 -20 -20 -20 -20 -20 -19 -20 -19 -5 -3 -17 -20 -20 -20 -20 -20 -20 -20 -20 -20 -20 -20 -20 -20 -20 -20
4 16 16 18 -19 -20 -20 -20 -20 -20 -20 -20 -20 -20 -20 -20 -20 -20 -20 -20 -20 -20 -20 -20 -20 -20 -20 -20 -20 -20 -20 -20 -20 -20 -20 -20 -20 -20 -20 -20 -20 -20 -20
9 13 13 -9 -20 -20 -20 -20 -20 -20 -20 -20 -20 -20 -20 -20 -20 -20 -20 -20 -20 -20 -20 -20 -20 -20 -20 -20 -20 -20 -17 -20 -20 -20 -20 -20 -20 -20 -20 -20 -20 -20 -20
-15 -20 -20 -20 -20 -20 -20 -20 -20 -20 -20 -20 -20 -20 -20 -20 -20 -20 -20 -20 -20 -20 -20 -20 -20 -20 -20 -20 -20 -20 -20 -20 -20 -20 -20 -20 -20 -13 -15 -19 -20 -20 -20
-20 -20 -20 -20 -20 -20 -20 -20 -20 -20 -20 -20 -20 -20 -20 -15 -20 -20 -20 -20 -20 -4 -6 -20 -6 0 -0 -3 -1 -20 7 8 13 -20 -14 3 -20 -10 -20 -20 -20 1 -20
-20 -20 -20 -20 -20 -20 -20 -20 -20 -20 -20 -20 -15 -4 -20 -20 -20 -13 -7 -20 -13 -15 -20 -6 1 -1 0 -2 -0 6 4 11 11 -9 8 13 7 -2 -11 -13 -20 -20 -20
-20 -20 -13 -20 -20 -10 -14 -20 -20 -20 -20 -8 -8 -7 -12 -20 -20 -20 -1 7 9 8 10 2 -3 -20 6 10 13 11 8 11 12 9 7 12 7 10 1 8 -20 -20 -20
-20 -0 -20 -18 -20 -1 -20 -20 -20 -4 1 -0 -3 7 10 9 8 10 11 13 1 6 -7 9 -7 -20 -20 -20 -20 -15 11 9 17 12 5 12 7 9 8 5 -6 -20 -20
-20 -20 -20 -20 -7 -3 5 -20 -20 2 7 9 6 4 4 4 -17 -11 12 8 9 -9 13 -19 -11 -13 -20 -4 -20 -17 10 13 8 -1 -20 14 15 13 16 -20 -18 -20 -18

GFSMA_prec_radar_030.txt.gz
Reflectivity
-20 -20 -20 -20 -20 -20 -20 -20 -20 -20 -20 -20 -20 -20 -20 -20 -20 -20 -20 -20 -20 -20 -20 -20 -20 -20 -20 -20 -20 -20 -20 -20 -20 -20 -20 -20 -20 -20 -20 -3 5 10 -17
-20 -20 -20 -20 -20 -20 -20 -20 -20 -20 -20 -20 -20 -20 -20 -20 -20 -20 -20 -20 -20 -20 -20 -20 -20 -20 -20 -20 -20 -20 -20 -20 -20 -20 -20 -20 -20 -20 -20 -20 2 12 13
-20 -20 -20 -20 -20 -20 -20 -20 -20 -20 -20 -20 -20 -20 -20 -20 -20 -20 -20 -20 -20 -20 -20 -20 -20 -20 -20 -20 -20 -20 -20 -20 -20 -20 -20 -20 -20 -20 26 -20 -20 -3 8
-20 -20 -20 -20 -20 -20 -20 -20 -20 -20 -20 -20 -20 -20 -20 -20 -20 -20 -20 -20 -20 -20 -20 -20 -20 -20 -20 -20 -20 -20 -20 -20 -20 -20 -20 -20 -20 -20 -20 -14 -14 -20 12
-20 -20 -20 -20 -20 -20 -20 -20 -20 -20 -20 -20 -20 -20 -20 -20 -20 -20 -20 -20 -20 -20 -20 -20 -20 -20 -20 -20 -20 -20 -20 -20 -20 -20 -20 -20 -20 -20 -20 -20 -20 6 26
-20 -20 -20 -20 -20 -20 -20 -20 -20 -20 -20 -20 -20 -20 -20 -20 -20 -20 -20 -20 -20 -20 -20 -20 -20 -20 -20 -20 -20 -20 -20 -20 -20 -20 -20 -20 -20 -20 -11 -17 -20 -20 32
-20 -20 -20 -20 -20 -20 -20 -20 -20 -20 -20 -20 -20 -20 -20 -20 -20 -20 -20 -20 -20 -20 -20 -20 -20 -20 -20 -20 -20 -20 -20 -20 -20 -20 -20 -20 -20 -20 -20 -18 -20 -20 -20
-20 -20 -20 -20 -20 -20 -20 -20 -20 -20 -20 -20 -20 -15 -20 -20 -20 -20 -20 -20 -20 -20 -20 -20 -20 -20 -20 -20 -20 -20 -20 -20 -20 -20 -20 -20 -20 -20 -20 -20 -20 -20 -20
-20 -20 -20 -20 -20 -20 -20 -20 -20 -20 -20 -20 -20 -7 -5 -20 -20 -20 -20 8 1 5 -13 28 11 -20 -20 -20 -20 -20 -20 -20 -20 -20 -20 -20 -20 -20 -20 -20 -20 -20 -20
-20 -20 -20 -20 -20 -20 -20 -20 -20 -20 -20 -20 -20 -20 -17 -17 -8 -15 -20 -20 20 -20 9 20 10 36 29 1 -20 -20 -20 -20 -20 -20 -20 -20 -20 -20 -20 -20 -20 -20 -20
-20 -20 -20 -20 -20 -20 -20 -16 -20 -20 -20 -20 -20 -20 -20 -20 -20 -17 -11 -20 -20 -20 16 -3 12 19 10 35 27 -20 -20 -20 -20 -20 -20 -20 -20 -20 -20 -20 -20 -20 -20
-20 -20 -20 -20 -20 -20 -20 -20 -20 -20 -19 -18 -18 -20 -20 0 -20 -20 -20 -20 -20 -20 -20 -20 -8 36 24 28 32 -6 -12 -20 -20 -20 -20 -20 -20 -20 -20 -20 -20 -20 -20
-20 -20 -20 -20 -20 -20 -20 -20 -20 -20 -20 -17 -13 -20 -20 -7 -5 -2 10 21 3 -11 -20 -20 -19 19 -8 27 38 -0 6 4 -20 -20 -20 -20 -20 -20 -20 -20 -20 -20 -20
-20 -20 -20 -20 -20 -20 -20 -20 -1 -12 -20 -17 -20 -20 -7 5 6 3 10 25 15 -15 -20 -20 -20 28 9 24 35 36 13 9 -2 -20 -20 -20 -20 -20 -20 -20 -20 -20 -20
-20 -20 -20 -20 -20 -20 -20 -20 -20 -20 -18 -20 10 18 21 32 -4 -16 -16 -8 22 9 -20 -20 1 -12 28 24 31 31 34 23 25 -14 -20 -20 -20 -20 -20 -20 -20 -20 -20
-20 -20 -20 -13 -19 -20 -20 -20 -20 -19 -0 -20 -20 -20 -19 -9 9 -8 8 21 21 -16 -8 -11 -2 -19 -17 16 20 30 12 -2 -7 -20 -20 -20 -20 -20 -20 -20 -20 -20 -20
-20 -20 -0 -20 -20 3 9 10 18 7 13 12 9 10 13 -20 -20 5 -12 -6 18 13 11 -17 -20 -13 -7 -13 -19 5 8 3 -19 -20 -20 -20 -20 -20 -20 -20 -20 -20 -20
-20 8 -19 -3 -19 -19 -20 -20 -20 1 -10 8 -20 -20 -20 -20 -20 -20 -20 -20 -20 -20 -20 -20 -20 -20 -20 -5 2 1 8 8 -19 -20 -20 -20 -20 -20 -20 -20 -20 -20 -20
-5 -20 -20 -20 -14 -19 -8 -20 -20 -20 -20 -20 -20 -20 -20 -20 -20 -20 -20 -11 -20 -19 -20 -20 -20 -20 -20 -20 -20 -20 -20 -20 -20 -20 -20 -20 -20 -20 -20 -20 -20 -20 -20
-6 7 -9 -20 -20 -20 -20 -20 -20 -20 -20 -20 -20 -20 -20 -20 -20 -1 -20 -20 -20 -20 -20 -20 -20 -20 -20 -20 -20 -20 -20 -20 -20 -16 -20 -20 -20 -20 -20 -20 -20 -20 -20
-20 -20 -20 -20 -20 -20 -20 -20 -20 -20 -20 -20 -20 -20 -20 -20 -1 -20 0 -20 -20 -20 -20 -20 -20 -20 -20 -20 -20 -18 -20 -20 -20 -20 -20 -20 -20 -20 -20 -20 -20 -20 -20
4 -20 -20 -20 -20 -20 -20 -20 -20 -20 -20 -20 -20 -20 -20 -16 -20 6 4 -1 -20 -20 -20 -20 -20 -20 -20 -20 -20 -20 -20 -20 -20 -20 -20 -20 -20 -20 -20 -20 -20 -20 -20
-20 -20 -20 -20 -20 -20 -20 -20 -20 -20 -20 -20 -20 -20 -20 -20 -20 -20 -20 -20 -20 -20 -20 -20 -20 -20 -20 -20 -20 -20 -20 -20 -20 -20 -20 -20 -20 -20 -20 -20 -20 -20 -20
-20 -20 -20 -20 -20 -20 -20 -20 -20 -20 -20 -20 -15 -20 -20 -20 -20 -12 -9 -20 -10 2 -4 10 3 -4 -12 -20 -2 11 18 9 15 6 -10 2 -20 -20 -20 -20 -20 -20 -12
-20 -20 -20 -20 -20 -20 -20 -10 -20 -20 -20 -20 -20 -20 7 -3 -20 -14 -15 -19 -20 -20 -20 -11 10 14 -5 -14 -20 1 -19 -20 -20 -20 -20 9 -1 -20 -20 -20 -20 -20 -20
-20 -20 -20 -20 -20 -20 -10 7 10 -17 -20 -19 -20 -20 -20 -18 15 6 3 -3 -20 -20 -20 -20 -20 -20 -20 -20 -20 -20 -20 1 -20 -19 -20 0 -20 -4 2 -20 -20 -20 -20

GFSMA_prec_radar_033.txt.gz
Reflectivity
-20 -20 -20 -20 -20 -20 -20 -20 -20 -20 -20 -20 -20 -20 -20 -20 -20 -20 -20 -20 -20 -20 -20 -20 -20 -20 -20 -20 -20 -20 -20 -20 -20 -20 -20 8 -7 -20 -20 -20 -20 13 4
-20 -20 -20 -20 -20 -20 -20 -20 -20 -20 -20 -20 -20 -20 -20 -20 -20 -20 -20 -20 -20 -20 -20 -20 -20 -20 -20 -20 -20 -20 -20 -20 -20 -20 -20 -20 -20 -20 -20 -20 -20 -20 18
-20 -20 -20 -20 -20 -20 -20 -20 -20 -20 -20 -20 -20 -20 -20 -20 -20 -20 -20 -20 -20 -20 -20 -20 -20 -20 -20 -20 -20 -20 -20 -20 -20 -20 -20 -20 -20 -20 -20 -20 -20 -20 2
-20 -20 -20 -20 -20 -20 -20 -20 -20 -20 -20 -20 -20 -20 -20 -20 -20 -20 -20 -20 -20 -20 -20 -20 -20 -20 -20 -20 -20 -20 -20 -20 -20 -20 -20 -20 -20 -20 -20 17 -16 -16 -20
-20 -20 -20 -20 -20 -20 -20 -20 -20 -20 -20 -20 -20 -20 -20 -20 -20 -20 -20 -20 -20 -20 -20 -20 -20 -20 -20 -20 -20 -20 -20 -20 -20 -20 -20 -20 -20 -20 -20 -20 -20 -3 20
-20 -20 -20 -20 -20 -20 -20 -20 -20 -20 -20 -20 -20 -20 -20 -20 -20 -20 -20 -20 -20 -20 -20 -20 -20 -20 -20 -20 -20 -20 -20 -20 -20 -20 -20 -20 -20 -20 -20 -20 -20 -20 24
-20 -20 -20 -20 -20 -20 -20 -20 -20 -20 -20 -20 -20 -20 -20 -20 -20 -20 -20 -20 -20 -8 -20 -20 -20 -20 -20 -20 -20 -20 -20 -20 -20 -20 -20 -20 -20 -20 -20 -20 -20 -20 -20
-20 -20 -20 -20 -20 -20 -20 -20 -20 -20 -20 -20 -20 -20 -20 -20 -20 -20 -20 -20 -20 -20 -20 15 -20 -11 -17 -20 -20 -20 -20 -20 -20 -20 -20 -20 -20 -20 -20 -20 -20 -20 -20
-20 -20 -20 -20 -20 -20 -20 -20 -20 -20 -20 -20 -20 -20 -20 -13 -20 -20 -20 -20 -20 -20 -20 -20 -18 2 -13 0 -20 -20 1 -20 -20 -20 -20 -20 -20 -20 -20 -20 -20 -20 -20
-20 -20 -20 -20 -20 -20 -20 -20 -20 -20 -20 -20 -20 -20 -20 -15 -20 -20 -20 -20 -20 -20 -20 -20 -9 22 24 21 5 -16 -12 10 -20 -20 -20 -20 -20 -20 -20 -20 -20 -20 -20
-20 -20 -20 -20 -20 -20 -20 -20 -20 -20 -20 -20 -20 -20 -20 -20 -20 -20 -20 -20 -20 -20 -20 -20 -20 -20 20 29 23 27 32 9 3 -20 -20 -20 -20 -20 -20 -20 -20 -20 -20
-20 -20 -20 -20 -20 -20 -20 -20 -20 -20 -20 -20 -20 -20 -20 -20 -20 5 -9 -20 -20 -20 -20 -20 -20 -20 -20 7 27 25 34 20 23 -14 -20 -20 -20 -20 -20 -20 -20 -20 -20
-20 -20 -20 -20 -20 -20 -20 -20 -20 -20 -20 -20 -20 -20 -20 -20 -20 3 5 -8 -20 -20 -20 -20 -20 -20 -20 -20 1 37 20 31 32 -1 -20 -19 -20 -20 -20 -20 -20 -20 -20
-20 -20 -20 -20 -20 -20 -20 -20 -20 -20 -20 -20 -20 -20 14 20 8 13 16 4 -20 -20 -20 -20 -20 -20 -20 -20 22 11 28 34 34 36 25 17 -10 19 -18 -20 -20 -20 -20
-20 -20 -20 -20 -20 -20 -20 -20 -20 -20 -20 -20 -20 -20 -20 -20 -20 -5 15 14 27 4 -20 -20 -20 -20 -20 -20 -15 28 20 29 38 27 15 5 -12 -7 -20 -20 -20 -20 -20
-20 -20 -20 -20 -20 -20 -16 -20 -20 -20 -20 -20 -20 -20 -10 -6 0 12 11 6 9 -4 -12 -20 -20 -20 -20 -20 -20 -20 25 33 22 32 20 28 -15 -13 -12 -20 -20 -20 -20
-20 -20 -20 -20 -20 15 -7 1 6 5 7 -11 -20 -20 -20 -20 -20 -20 -20 -18 -15 5 1 -20 -3 -20 -20 -20 -20 -9 -5 23 27 22 9 11 2 -19 -19 -20 -20 -20 -20
-20 -20 -20 -1 -15 21 16 3 2 -20 -20 -20 -20 -20 -20 -20 -20 -20 -20 -20 -20 -20 -20 -20 -20 -20 -20 -20 -20 -20 -20 -14 19 17 1 13 5 -9 -20 -20 -20 -20 -20
-20 -20 -1 -6 -20 -19 -20 -20 -20 -20 -20 -20 -20 -20 -20 -20 -20 -20 -20 -20 -20 -20 -20 -20 -20 -20 -20 -20 -20 -20 -20 -20 -19 -20 -9 -11 -18 -20 -20 -20 -20 -20 -20
-20 -20 -20 -15 -20 -20 -20 -20 -20 -20 -20 -20 -20 -20 -20 -20 -20 -20 -20 -20 -20 -20 -20 -20 -20 -20 -20 -20 -20 -20 -20 -20 -20 -20 -20 -20 -20 -20 -20 -20 -20 -20 -20
-20 -20 -20 -20 -20 -20 -20 -20 -20 -20 -20 -20 -20 -20 -20 -20 -20 -2 -17 -20 -20 -20 -20 -20 -20 -20 -20 -20 -20 -20 -20 -20 -20 -20 -20 -20 -20 -20 -20 -20 -20 -20 -20
-20 -20 -20 -20 -20 -20 -20 -20 -20 -20 -20 -20 -20 -20 -20 -20 -20 -20 -20 -20 -20 -20 -20 -20 -20 -20 -20 -20 -20 -20 -20 -20 -20 -20 -20 -20 -20 -20 -20 -20 -20 -20 -20
-20 -20 -20 -20 -20 -20 -20 -20 -20 -20 -20 -20 -20 -20 -20 -20 -20 -20 -20 -20 -20 -2 7 -12 -20 -20 -20 -20 -20 -20 -20 -20 -20 -20 -20 -20 -20 -20 -20 -20 -20 -20 -20
-20 -20 -20 -20 -20 -20 -20 -20 -20 -20 -20 -20 -20 -20 -20 -20 -20 -20 -8 -20 -20 -20 -20 -10 -8 -11 8 -20 -20 -20 -19 -1 4 -20 -20 -20 -20 -20 -20 -20 -20 -20 -20
-20 -20 -20 -20 -20 -20 -20 -20 -20 -20 -20 -20 -20 -20 -20 -20 -20 8 -18 -20 -20 -20 -20 -18 10 0 -5 -19 17 12 7 -20 -20 -20 -20 -20 -20 -20 -20 -20 -20 -20 -20
-20 -20 -20 -20 -20 -20 -20 -9 -20 -20 -20 -20 -20 -20 -20 -20 7 12 4 9 -20 -20 -20 -20 -20 -20 -20 -20 -20 -20 -20 -20 -20 -11 -0 -9 -20 -19 -18 -20 -20 -20 -20